When you browse on this site, cookies collect data to enhance your experience and personalize the content and advertising you see.
Visit our Privacy Policy to learn more. By continuing to use the site, you agree to this use of cookies and data.
  • In Romania
  • List of Countries
  • For 7 days
  • Water Temperature
  • Satellite Maps
  • Weather Map
  • Weather Widgets
  • user-avatar
    Login

    Hourly Weather Banjul

    Today, 10 December, Monday

    Time Temperature Precipitation Wind Pressure Humidity
    00:00 +26°C° 0 mm 3 mps 760 mmHg 24%
    01:00 +26°C° 0 mm 3 mps 760 mmHg 22%
    02:00 +26°C° 0 mm 3 mps 760 mmHg 20%
    03:00 +25°C° 0 mm 4 mps 760 mmHg 19%
    04:00 +25°C° 0 mm 4 mps 760 mmHg 18%
    05:00 +23°C° 0 mm 4 mps 760 mmHg 18%
    06:00 +25°C° 0 mm 5 mps 760 mmHg 17%
    07:00 +26°C° 0 mm 5 mps 761 mmHg 17%
    08:00 +27°C° 0 mm 6 mps 761 mmHg 16%
    09:00 +30°C° 0 mm 5 mps 761 mmHg 14%
    10:00 +34°C° 0 mm 5 mps 760 mmHg 12%
    11:00 +37°C° 0 mm 5 mps 760 mmHg 12%
    12:00 +38°C° 0 mm 4 mps 760 mmHg 12%
    13:00 +40°C° 0 mm 4 mps 759 mmHg 11%
    14:00 +39°C° 0 mm 3 mps 759 mmHg 11%
    15:00 +38°C° 0 mm 3 mps 758 mmHg 12%
    16:00 +37°C° 0 mm 3 mps 758 mmHg 13%
    17:00 +37°C° 0 mm 3 mps 758 mmHg 14%
    18:00 +35°C° 0 mm 3 mps 759 mmHg 18%
    19:00 +32°C° 0 mm 4 mps 759 mmHg 22%
    20:00 +29°C° 0 mm 4 mps 760 mmHg 26%
    21:00 +29°C° 0 mm 4 mps 760 mmHg 26%
    22:00 +28°C° 0 mm 4 mps 760 mmHg 25%
    23:00 +27°C° 0 mm 4 mps 760 mmHg 25%

    Tomorrow, 11 December, Tuesday

    Time Temperature Precipitation Wind Pressure Humidity
    00:00 +26°C° 0 mm 4 mps 760 mmHg 22%
    01:00 +26°C° 0 mm 4 mps 760 mmHg 19%
    02:00 +25°C° 0 mm 4 mps 759 mmHg 16%
    03:00 +25°C° 0 mm 4 mps 759 mmHg 16%
    04:00 +23°C° 0 mm 4 mps 759 mmHg 16%
    05:00 +23°C° 0 mm 4 mps 759 mmHg 16%
    06:00 +25°C° 0 mm 4 mps 760 mmHg 15%
    07:00 +26°C° 0 mm 5 mps 760 mmHg 15%
    08:00 +27°C° 0 mm 5 mps 761 mmHg 14%
    09:00 +29°C° 0 mm 5 mps 761 mmHg 13%
    10:00 +33°C° 0 mm 5 mps 760 mmHg 11%
    11:00 +35°C° 0 mm 5 mps 760 mmHg 10%
    12:00 +36°C° 0 mm 4 mps 760 mmHg 10%
    13:00 +37°C° 0 mm 3 mps 759 mmHg 10%
    14:00 +38°C° 0 mm 3 mps 758 mmHg 10%
    15:00 +36°C° 0 mm 3 mps 758 mmHg 12%
    16:00 +35°C° 0 mm 4 mps 758 mmHg 14%
    17:00 +34°C° 0 mm 5 mps 757 mmHg 17%
    18:00 +32°C° 0 mm 5 mps 758 mmHg 24%
    19:00 +29°C° 0 mm 5 mps 758 mmHg 30%
    20:00 +28°C° 0 mm 6 mps 759 mmHg 37%
    21:00 +27°C° 0 mm 6 mps 759 mmHg 35%
    22:00 +26°C° 0 mm 6 mps 759 mmHg 32%
    23:00 +26°C° 0 mm 6 mps 759 mmHg 30%

    Day after tomorrow, 12 December, Wednesday

    Time Temperature Precipitation Wind Pressure Humidity
    00:00 +24°C° 0 mm 6 mps 759 mmHg 30%
    01:00 +23°C° 0 mm 5 mps 759 mmHg 31%
    02:00 +23°C° 0 mm 5 mps 759 mmHg 31%
    03:00 +22°C° 0 mm 5 mps 759 mmHg 28%
    04:00 +22°C° 0 mm 5 mps 759 mmHg 24%
    05:00 +21°C° 0 mm 5 mps 759 mmHg 21%
    06:00 +22°C° 0 mm 5 mps 759 mmHg 19%
    07:00 +23°C° 0 mm 5 mps 760 mmHg 17%
    08:00 +24°C° 0 mm 6 mps 760 mmHg 15%
    09:00 +28°C° 0 mm 5 mps 760 mmHg 13%
    10:00 +32°C° 0 mm 5 mps 760 mmHg 12%
    11:00 +35°C° 0 mm 5 mps 759 mmHg 10%
    12:00 +36°C° 0 mm 4 mps 759 mmHg 10%
    13:00 +37°C° 0 mm 4 mps 758 mmHg 9%
    14:00 +38°C° 0 mm 3 mps 757 mmHg 9%
    15:00 +37°C° 0 mm 3 mps 757 mmHg 11%
    16:00 +36°C° 0 mm 3 mps 757 mmHg 12%
    17:00 +35°C° 0 mm 3 mps 757 mmHg 14%
    18:00 +33°C° 0 mm 4 mps 757 mmHg 20%
    19:00 +30°C° 0 mm 4 mps 758 mmHg 27%
    20:00 +28°C° 0 mm 5 mps 759 mmHg 33%
    21:00 +28°C° 0 mm 5 mps 759 mmHg 32%
    22:00 +27°C° 0 mm 4 mps 759 mmHg 30%
    23:00 +26°C° 0 mm 4 mps 759 mmHg 29%

    13 December, Thursday

    Time Temperature Precipitation Wind Pressure Humidity
    00:00 +26°C° 0 mm 4 mps 759 mmHg 25%
    01:00 +25°C° 0 mm 4 mps 759 mmHg 21%
    02:00 +25°C° 0 mm 4 mps 758 mmHg 17%
    03:00 +25°C° 0 mm 5 mps 758 mmHg 16%
    04:00 +23°C° 0 mm 5 mps 758 mmHg 16%
    05:00 +23°C° 0 mm 6 mps 758 mmHg 15%
    06:00 +24°C° 0 mm 6 mps 759 mmHg 15%
    07:00 +26°C° 0 mm 6 mps 759 mmHg 15%
    08:00 +27°C° 0 mm 6 mps 760 mmHg 15%
    09:00 +30°C° 0 mm 6 mps 760 mmHg 14%
    10:00 +33°C° 0 mm 5 mps 760 mmHg 12%
    11:00 +36°C° 0 mm 5 mps 760 mmHg 11%
    12:00 +37°C° 0 mm 4 mps 759 mmHg 12%
    13:00 +38°C° 0 mm 3 mps 759 mmHg 13%
    14:00 +39°C° 0 mm 2 mps 758 mmHg 13%
    15:00 +38°C° 0 mm 2 mps 758 mmHg 15%
    16:00 +37°C° 0 mm 2 mps 758 mmHg 16%
    17:00 +37°C° 0 mm 2 mps 758 mmHg 18%
    18:00 +35°C° 0 mm 2 mps 758 mmHg 20%
    19:00 +32°C° 0 mm 2 mps 759 mmHg 22%
    20:00 +30°C° 0 mm 3 mps 760 mmHg 24%
    21:00 +30°C° 0 mm 3 mps 760 mmHg 25%
    22:00 +29°C° 0 mm 2 mps 760 mmHg 25%
    23:00 +28°C° 0 mm 2 mps 760 mmHg 26%

    14 December, Friday

    Time Temperature Precipitation Wind Pressure Humidity
    00:00 +28°C° 0 mm 2 mps 760 mmHg 24%
    01:00 +27°C° 0 mm 2 mps 759 mmHg 22%
    02:00 +26°C° 0 mm 3 mps 759 mmHg 21%
    03:00 +26°C° 0 mm 3 mps 759 mmHg 19%
    04:00 +26°C° 0 mm 4 mps 759 mmHg 17%
    05:00 +26°C° 0 mm 4 mps 759 mmHg 15%
    06:00 +27°C° 0 mm 5 mps 760 mmHg 14%
    07:00 +28°C° 0 mm 6 mps 760 mmHg 14%
    08:00 +29°C° 0 mm 6 mps 761 mmHg 13%
    09:00 +32°C° 0 mm 7 mps 761 mmHg 12%
    10:00 +34°C° 0 mm 7 mps 761 mmHg 11%
    11:00 +35°C° 0 mm 7 mps 761 mmHg 10%
    12:00 +36°C° 0 mm 6 mps 760 mmHg 10%
    13:00 +38°C° 0 mm 6 mps 759 mmHg 10%
    14:00 +39°C° 0 mm 6 mps 758 mmHg 9%
    15:00 +37°C° 0 mm 5 mps 758 mmHg 10%
    16:00 +36°C° 0 mm 4 mps 759 mmHg 11%
    17:00 +36°C° 0 mm 4 mps 759 mmHg 12%
    18:00 +34°C° 0 mm 4 mps 759 mmHg 12%
    19:00 +33°C° 0 mm 4 mps 760 mmHg 13%
    20:00 +32°C° 0 mm 4 mps 760 mmHg 13%
    21:00 +32°C° 0 mm 4 mps 760 mmHg 13%
    22:00 +30°C° 0 mm 5 mps 760 mmHg 13%
    23:00 +30°C° 0 mm 5 mps 760 mmHg 13%

    15 December, Saturday

    Time Temperature Precipitation Wind Pressure Humidity
    00:00 +30°C° 0 mm 5 mps 760 mmHg 13%
    01:00 +29°C° 0 mm 5 mps 760 mmHg 13%
    02:00 +29°C° 0 mm 6 mps 759 mmHg 13%
    03:00 +28°C° 0 mm 6 mps 760 mmHg 13%
    04:00 +28°C° 0 mm 6 mps 760 mmHg 13%
    05:00 +27°C° 0 mm 6 mps 760 mmHg 13%
    06:00 +28°C° 0 mm 6 mps 760 mmHg 13%
    07:00 +28°C° 0 mm 6 mps 761 mmHg 12%
    08:00 +28°C° 0 mm 6 mps 761 mmHg 12%
    09:00 +30°C° 0 mm 6 mps 761 mmHg 12%
    10:00 +33°C° 0 mm 6 mps 761 mmHg 11%
    11:00 +35°C° 0 mm 6 mps 761 mmHg 11%
    12:00 +36°C° 0 mm 5 mps 760 mmHg 10%
    13:00 +37°C° 0 mm 4 mps 759 mmHg 10%
    14:00 +38°C° 0 mm 4 mps 758 mmHg 10%
    15:00 +38°C° 0 mm 3 mps 758 mmHg 11%
    16:00 +37°C° 0 mm 3 mps 758 mmHg 12%
    17:00 +36°C° 0 mm 3 mps 758 mmHg 14%
    18:00 +34°C° 0 mm 3 mps 759 mmHg 16%
    19:00 +33°C° 0 mm 3 mps 759 mmHg 19%
    20:00 +30°C° 0 mm 4 mps 760 mmHg 22%
    21:00 +30°C° 0 mm 4 mps 760 mmHg 20%
    22:00 +29°C° 0 mm 4 mps 760 mmHg 18%
    23:00 +29°C° 0 mm 5 mps 760 mmHg 16%
    Show more